Flag for Canada Weather past 2 weeks in Ottawa, Ontario, Canada

Now
77 °F

Scattered clouds.


Feels Like: 79 °F
Forecast: 58 / 84 °F
Wind: 7 mph from Southwest

Location: Ottawa Int'L. Ont.

Current Time: Sep 1, 2015 at 12:42:05 PM

Latest Report: Sep 1, 2015 at 12:00 PM


Visibility: 8 mi

Pressure: 30.04 "Hg

Humidity: 65%

Dew point: 64 °F

Location of OttawaLocation

Historic Weather in Ottawa — Graph

°F

Ottawa temperature yesterday

Maximum temperature yesterday: 77 °F (at 1:00 PM)
Minimum temperature yesterday: 61 °F (at 11:00 PM)
Average temperature yesterday: 69 °F

Past Weeks' High & Low Weather Summary

 TemperatureHumidityPressure
High88 °F (Aug 17, 2:00 PM)100% (Aug 18, 5:00 AM)30.20 "Hg (Aug 18, 5:00 AM)
Low48 °F (Aug 28, 6:00 AM)44% (Aug 22, 5:00 PM)29.77 "Hg (Aug 20, 6:00 PM)
Average68 °F81%29.99 "Hg
* Reported Aug 17 11:00 AM — Sep 1 11:00 AM, Ottawa, Weather by CustomWeather, © 2015

Note: Actual official high and low records may vary slightly from our data, if they occured in-between our weather recording intervals... More about our weather records

Advertising

Ottawa weather history for previous 24 hours

 ConditionsComfort  
Time TempWeatherWind HumidityBarometerVisibility
11:00 AM
Tue, Sep 1
73 °FPassing clouds.3 mph78%30.06 "Hg8 mi
10:00 AM66 °FFog.No wind94%30.06 "Hg6 mi
9:00 AM63 °FFog.2 mph100%30.06 "Hg2 mi
8:49 AM63 °FFog.2 mph94%30.06 "Hg1 mi
8:00 AM59 °FFog.2 mph100%30.07 "Hg0 mi
7:00 AM55 °FFog.2 mph100%30.06 "Hg1 mi
6:00 AM57 °FFog.2 mph100%30.04 "Hg1 mi
5:00 AM57 °FFog.3 mph94%30.03 "Hg3 mi
4:00 AM59 °FClear.No wind94%30.03 "Hg8 mi
3:00 AM61 °FFog.3 mph100%30.02 "Hg8 mi
2:00 AM61 °FPassing clouds.5 mph94%30.01 "Hg8 mi
1:00 AM59 °FLight fog.6 mph100%30.01 "Hg8 mi
11:00 PM
Mon, Aug 31
61 °FPassing clouds.2 mph100%30.01 "Hg10 mi
10:00 PM66 °FPassing clouds.3 mph88%30.00 "Hg15 mi
9:00 PM68 °FPassing clouds.6 mph83%29.99 "Hg15 mi
8:00 PM72 °FPartly sunny.9 mph73%29.98 "Hg15 mi
7:00 PM73 °FPartly sunny.8 mph69%29.97 "Hg15 mi
6:00 PM75 °FPartly sunny.13 mph65%29.97 "Hg10 mi
5:00 PM77 °FScattered clouds.16 mph61%29.96 "Hg10 mi
4:00 PM77 °FPassing clouds.14 mph61%29.96 "Hg10 mi
3:00 PM75 °FPartly sunny.17 mph65%29.96 "Hg10 mi
2:00 PM75 °FPartly sunny.14 mph69%29.96 "Hg10 mi
1:00 PM77 °FScattered clouds.13 mph69%29.96 "Hg10 mi
12:00 PM73 °FBroken clouds.12 mph74%29.97 "Hg10 mi
Weather by CustomWeather, © 2015

See weather overviewHow to use our weather pages